GFSCGP_sfc_temp_000.txt.gz
Temp
60 60 57 55 56 56 53 50 51 57 59 52 54 54 58 57 52 51 51 52 52 53 57 57 58 59 59 61 61 61 60 60 61 61 60 59 58 62 60 60 61 62 61 63
61 56 55 54 54 52 52 50 53 53 55 51 52 51 54 51 49 50 50 50 51 52 53 54 56 57 57 58 58 58 58 58 58 57 58 60 60 60 62 63 61 60 60 60
53 57 53 52 53 50 53 47 47 45 51 55 52 50 51 48 51 51 51 51 52 51 51 52 53 55 57 56 56 57 58 58 58 55 53 54 57 59 59 59 58 58 59 58
53 54 51 51 50 48 45 48 46 46 45 41 51 37 48 45 47 47 48 49 50 51 52 53 53 53 55 55 56 56 57 57 57 56 51 48 48 50 56 57 60 60 59 60
53 50 49 48 47 48 46 47 46 46 43 41 45 38 45 50 44 43 46 48 50 51 50 51 52 53 55 56 55 55 56 56 57 55 54 49 47 49 53 55 57 58 58 58
50 50 50 49 47 46 48 47 49 46 41 33 38 36 41 43 38 41 46 48 48 49 50 51 53 54 54 55 54 54 54 54 56 56 55 52 48 47 48 51 52 56 57 56
47 45 47 48 46 47 49 43 35 31 33 33 40 34 41 40 42 43 43 45 47 48 48 49 49 51 52 52 52 54 53 52 54 54 54 53 50 48 47 49 50 51 55 55
41 38 43 45 45 43 41 41 32 20 25 29 35 27 37 43 47 46 47 46 46 47 48 48 49 50 50 50 51 52 52 52 52 53 53 53 52 47 47 46 48 51 50 56
39 36 42 42 44 44 39 36 39 29 23 21 33 37 43 44 43 44 43 43 43 44 46 47 48 49 49 49 49 49 50 50 52 52 52 52 52 49 44 44 45 45 50 52
39 35 39 40 43 42 41 42 29 31 17 16 30 32 34 36 37 40 39 40 41 44 45 45 46 46 47 47 48 48 48 48 50 51 52 51 51 51 48 45 44 44 46 50
41 37 35 38 37 38 35 33 33 32 28 18 17 29 42 36 37 37 38 40 41 42 43 43 44 45 44 44 43 41 42 43 46 49 51 51 51 51 49 47 46 44 44 43
39 36 30 35 37 37 39 35 33 25 21 25 22 22 41 40 40 39 38 39 41 41 42 42 42 41 39 36 34 33 34 35 37 40 42 50 51 51 50 48 46 44 43 42
37 32 26 24 31 35 32 32 33 32 28 18 15 24 40 42 39 39 37 38 39 39 39 39 39 36 32 29 28 28 29 30 32 34 37 40 45 49 49 50 48 45 43 42
40 34 33 30 34 33 27 30 32 29 20 21 22 25 32 35 34 35 36 37 37 36 37 37 34 31 29 27 26 26 26 27 29 31 32 33 37 42 45 48 48 44 42 40
36 27 30 32 33 31 30 30 30 25 26 19 25 25 30 34 33 34 36 35 33 34 33 31 29 27 26 24 24 23 25 26 27 27 28 29 32 33 34 39 43 43 40 39
34 26 25 21 28 28 25 28 28 28 27 25 25 23 36 36 36 34 33 31 31 30 29 28 26 24 23 22 22 23 23 24 26 25 24 26 27 27 29 35 39 41 39 38
28 25 18 21 22 22 18 23 27 28 30 28 21 28 34 32 32 30 29 32 28 26 26 25 22 22 22 21 21 20 21 22 20 23 24 24 25 25 28 30 37 39 38 37
28 24 21 17 16 11 27 32 31 28 30 32 31 32 33 32 32 31 36 30 25 24 24 23 21 21 21 21 19 20 18 18 18 22 23 24 24 25 27 30 34 39 38 37
31 25 19 14 12 21 27 29 27 25 25 32 30 31 33 32 29 33 35 29 24 23 23 22 21 21 19 18 17 15 15 16 16 17 22 24 24 23 26 27 31 37 36 36
29 29 21 12 11 11 26 30 34 30 18 31 32 31 28 26 21 27 29 25 24 23 23 20 20 19 17 16 15 14 14 13 14 16 18 21 24 23 24 26 31 33 35 35
19 19 16 16 14 19 30 33 33 15 23 33 32 30 25 22 25 26 25 23 23 21 20 21 18 16 16 15 13 12 12 11 14 15 17 19 21 24 25 27 30 32 34 35
18 16 15 17 13 10 34 30 24 33 35 33 31 27 23 23 23 22 21 20 19 18 18 18 15 13 15 14 12 10 10 13 14 14 13 14 16 24 28 28 31 33 34 34
19 26 19 22 21 34 34 36 38 35 33 30 25 25 21 19 19 18 16 16 16 16 15 16 12 10 12 12 11 7 9 12 10 8 9 12 16 21 28 28 31 34 34 34
30 33 26 24 30 32 34 36 35 32 30 27 24 20 18 16 16 12 13 13 12 13 12 11 9 7 7 9 9 8 9 9 6 7 12 17 19 22 27 33 35 34 34 35
32 30 28 27 32 33 35 36 37 28 25 22 20 18 16 14 11 11 9 9 10 10 9 9 6 5 4 7 6 7 7 5 6 11 16 18 22 24 26 33 36 35 35 36
31 30 25 25 34 33 34 33 30 26 23 21 15 13 13 11 10 10 7 9 9 7 7 5 4 4 3 3 3 5 3 3 6 10 13 15 20 29 29 32 35 38 36 37

GFSCGP_sfc_temp_003.txt.gz
Temp
68 63 61 62 60 59 57 55 54 60 59 56 56 56 59 52 53 51 51 52 53 54 57 59 59 60 59 60 60 59 58 60 61 60 57 56 54 56 57 58 62 66 67 64
65 60 61 59 58 56 56 54 55 59 59 55 56 55 53 50 50 50 49 51 52 54 55 56 57 58 57 57 59 59 58 58 59 59 59 57 55 54 56 57 58 58 65 65
56 62 59 56 57 55 56 53 51 48 54 58 56 52 46 49 51 51 52 53 54 52 51 53 54 55 56 56 56 57 58 57 58 58 59 57 56 53 51 52 51 54 54 62
58 61 54 55 54 53 48 51 50 48 47 43 55 39 48 46 48 49 49 51 51 52 52 52 52 53 54 54 55 56 57 56 56 57 56 54 52 49 51 50 50 51 53 54
56 55 53 51 53 51 52 51 49 49 46 47 47 43 50 49 46 45 48 49 50 51 50 51 51 52 54 54 53 54 55 55 55 55 56 54 53 53 53 50 49 50 51 53
55 55 53 54 51 50 51 51 52 52 49 35 45 41 45 47 44 43 47 48 48 49 50 50 52 52 52 53 52 52 53 53 53 54 55 54 52 52 51 49 48 47 49 52
53 52 51 51 48 51 51 48 37 36 37 35 44 37 43 44 44 44 45 46 47 49 48 48 48 49 49 48 49 50 50 48 51 50 52 52 52 52 51 50 47 46 44 44
46 44 47 50 48 46 46 45 35 25 29 33 39 30 41 47 48 48 49 47 47 47 47 47 47 47 47 47 47 45 43 43 45 46 47 50 51 52 52 51 48 47 44 44
46 44 46 45 48 47 43 39 43 33 31 25 35 42 44 46 46 46 45 45 44 44 45 45 46 45 45 45 44 42 38 37 37 38 39 39 46 51 50 51 51 47 47 45
48 39 45 42 46 45 43 46 32 34 20 20 34 35 38 39 39 41 41 41 42 43 43 44 44 44 45 43 40 37 35 33 33 33 35 37 39 41 43 50 49 48 47 45
46 42 38 40 39 42 38 37 36 36 33 22 21 32 44 39 40 38 40 41 41 42 42 42 42 44 42 40 37 34 32 31 31 32 33 34 35 37 39 42 50 49 48 45
44 41 35 40 43 42 40 39 39 28 27 28 26 25 46 44 43 41 40 41 42 42 42 42 42 41 38 36 34 31 30 30 30 31 30 31 33 35 37 39 40 49 48 46
40 36 29 30 35 37 34 38 40 38 32 24 20 26 43 44 45 42 39 40 41 40 40 41 39 37 35 33 30 30 29 27 28 28 28 29 29 31 33 35 37 39 41 46
43 38 35 32 38 36 30 34 36 33 25 25 26 29 37 40 39 39 38 39 39 38 39 37 36 34 33 31 28 27 27 26 26 26 25 25 28 29 30 32 33 33 36 39
40 31 35 36 38 37 34 33 33 29 31 26 29 30 36 39 37 37 38 39 37 37 36 34 33 32 31 28 26 25 24 24 23 22 22 21 24 25 27 28 28 30 31 36
37 29 32 24 31 32 28 31 32 32 32 31 29 27 39 41 40 37 36 36 34 35 33 32 31 30 28 26 24 24 22 21 20 18 17 20 21 21 25 26 26 27 29 31
32 30 23 20 27 24 19 27 30 32 34 31 24 32 39 36 34 34 34 34 34 32 30 30 29 28 26 24 24 20 20 19 17 16 16 17 18 19 24 26 25 25 28 31
31 28 23 19 20 13 30 35 34 32 35 36 35 36 37 35 36 36 37 34 31 29 28 28 27 26 25 24 22 20 18 17 15 15 15 17 17 18 20 22 25 26 28 29
36 26 20 16 16 24 29 34 29 26 28 35 34 36 35 36 34 33 39 33 29 28 28 27 26 25 23 21 20 17 15 16 15 14 15 16 15 14 17 18 23 25 26 29
32 32 24 18 13 13 27 31 35 32 21 37 36 33 33 32 22 30 34 30 28 28 26 24 24 22 20 19 18 14 13 13 12 13 13 15 14 13 14 16 19 25 26 29
20 20 16 17 15 21 34 34 35 18 25 34 35 34 32 27 31 32 31 28 27 25 23 24 20 18 17 17 15 11 11 10 12 13 12 12 13 12 13 15 18 25 26 29
20 17 17 18 16 13 38 31 25 35 36 37 35 34 29 29 28 27 27 24 22 20 20 19 16 14 15 15 12 8 8 11 11 9 8 9 11 15 17 16 19 27 28 29
19 26 22 24 24 36 37 37 38 38 36 35 32 32 27 24 25 24 21 19 18 17 17 16 12 11 12 13 10 6 8 9 7 4 6 11 16 19 22 20 21 28 29 31
27 32 25 26 31 33 36 38 39 37 35 34 30 27 23 21 21 16 16 16 14 15 13 12 9 8 7 9 9 7 6 6 2 3 9 13 13 16 20 25 26 31 32 34
30 31 27 28 33 35 37 38 39 35 31 27 24 23 21 19 15 15 13 12 13 12 11 9 7 6 5 6 6 6 4 2 1 4 11 11 13 14 17 23 29 31 35 36
33 31 27 26 36 35 36 38 38 34 28 27 24 19 17 14 14 13 10 11 10 8 8 5 4 3 3 3 2 2 1 -0 1 4 8 9 11 12 15 17 20 34 37 37

GFSCGP_sfc_temp_006.txt.gz
Temp
60 52 50 52 52 51 50 48 46 53 54 47 48 49 53 49 48 44 43 44 44 46 49 50 50 49 50 49 51 52 52 53 53 52 49 49 49 52 51 51 52 54 55 55
56 50 54 55 54 51 49 47 46 51 53 49 47 48 46 47 47 45 44 43 44 45 46 48 48 47 48 49 50 51 51 52 52 52 51 51 51 52 52 51 51 52 52 53
49 55 57 54 51 50 49 46 44 42 48 50 47 43 39 45 46 46 47 46 46 44 43 45 46 44 48 48 48 49 50 50 51 52 51 50 51 50 48 49 49 50 50 51
51 54 51 49 49 50 42 46 46 44 39 33 45 31 38 41 41 44 44 41 41 41 44 45 44 46 46 47 48 48 48 48 49 49 47 46 44 44 48 48 49 49 50 50
50 48 47 46 48 48 45 45 44 42 39 37 39 33 38 41 38 40 41 42 40 40 42 42 44 46 47 47 46 46 46 46 46 43 42 42 43 43 45 48 47 48 48 49
51 51 47 47 49 47 48 44 44 44 40 26 37 35 35 36 41 39 41 40 41 40 40 43 46 46 45 45 45 44 43 43 42 40 38 36 36 35 38 42 44 45 47 46
48 48 46 47 43 45 43 39 27 25 24 24 37 30 36 38 40 40 40 38 38 38 41 41 42 42 43 42 42 42 40 37 37 35 34 33 33 34 34 35 40 44 45 44
38 36 44 47 42 38 40 38 25 17 19 23 33 25 34 42 42 43 42 40 40 39 40 41 41 41 41 42 40 39 36 34 34 32 31 32 32 32 33 35 36 36 43 44
41 40 43 43 44 42 38 31 37 26 15 14 25 35 38 40 40 40 39 39 36 38 39 39 41 41 40 40 38 36 34 33 32 30 30 30 30 30 31 32 34 35 37 45
41 34 41 39 40 40 36 41 27 27 11 10 25 29 30 32 35 36 35 34 34 37 39 39 39 39 40 39 37 36 33 30 30 29 29 29 28 29 29 30 30 33 37 38
40 38 33 37 34 35 32 29 32 33 27 16 12 23 37 35 37 33 33 36 35 36 36 38 38 39 39 37 36 33 31 29 28 27 26 25 25 26 28 28 29 32 35 36
39 37 29 35 38 38 35 35 34 20 20 23 20 25 41 39 38 37 35 36 35 37 36 38 37 37 36 34 33 32 30 27 27 26 24 24 23 25 24 26 28 30 30 35
37 32 24 27 30 35 30 32 33 33 30 22 19 22 39 39 38 37 34 32 35 36 36 37 36 35 33 32 31 30 28 26 26 24 23 21 21 21 22 22 24 26 28 29
43 34 30 31 35 35 27 29 32 31 25 26 26 28 36 39 38 35 33 33 33 35 36 35 33 32 32 31 29 28 27 26 24 23 21 19 18 19 20 21 22 23 25 27
37 25 28 32 34 32 31 30 30 28 30 26 30 29 36 37 33 31 31 34 34 34 34 32 30 30 29 28 27 26 25 24 22 20 19 18 19 19 19 18 19 21 24 27
32 23 29 24 29 29 26 29 29 31 32 30 31 29 41 41 37 30 33 31 31 30 30 30 29 29 27 26 25 25 22 21 20 18 17 18 17 17 17 18 19 21 23 24
27 24 21 20 25 22 17 24 27 30 33 32 25 32 38 34 33 29 29 30 29 28 28 28 27 26 25 24 24 20 20 20 18 17 16 16 16 16 16 17 17 18 19 22
27 24 23 18 20 12 28 30 29 28 32 35 35 36 33 31 31 31 31 27 27 28 27 26 25 23 23 22 21 20 19 17 16 15 14 15 14 13 15 15 16 16 18 19
30 26 19 16 16 22 28 30 25 24 26 33 34 36 34 32 29 28 30 28 25 25 25 24 24 23 21 19 19 17 15 16 14 14 12 13 12 9 12 10 13 15 15 17
28 28 22 18 13 10 23 27 32 32 18 34 35 31 30 29 15 23 26 27 26 25 24 22 22 20 19 17 17 14 13 12 11 11 11 11 9 8 8 10 12 13 14 17
20 20 18 18 16 18 31 30 32 16 25 32 32 30 29 25 27 26 27 23 24 23 21 21 19 17 16 16 14 10 10 10 11 11 9 8 8 8 12 15 16 14 14 18
19 16 16 18 14 12 33 29 24 30 32 33 31 31 29 28 26 25 24 22 20 18 18 18 15 13 14 14 10 8 7 10 9 7 5 5 7 13 14 15 17 19 16 16
19 25 20 22 22 33 34 32 35 34 32 31 30 29 28 25 24 23 20 18 17 16 16 15 11 10 11 11 9 4 7 7 5 1 1 5 10 11 13 13 16 21 20 20
28 33 25 25 29 32 34 36 35 35 32 31 30 26 25 22 21 17 17 16 14 15 13 11 9 7 6 7 7 5 5 4 -1 -2 3 7 8 9 11 14 16 18 22 27
28 30 27 25 30 32 33 35 36 32 30 27 25 24 23 21 16 15 13 12 13 12 10 9 6 5 3 4 3 2 1 -1 -2 1 5 5 7 8 9 12 12 16 19 23
32 27 24 24 33 33 32 36 35 30 27 26 22 17 19 19 15 13 11 12 10 8 7 4 3 2 1 0 -1 -2 -2 -3 -3 0 2 4 4 7 8 8 9 15 18 22

GFSCGP_sfc_temp_009.txt.gz
Temp
54 49 44 45 46 46 45 43 41 46 52 48 45 45 43 45 43 39 39 40 41 43 43 46 46 44 44 44 43 45 47 48 48 46 44 44 45 46 48 49 50 51 51 50
48 45 51 53 52 49 46 42 41 47 49 45 44 43 48 45 43 42 40 40 40 41 41 44 43 42 41 41 42 45 46 46 46 46 45 45 44 44 46 47 48 49 49 50
45 50 53 51 46 46 43 41 40 42 44 45 42 38 39 41 42 42 43 42 41 41 41 40 43 40 39 39 39 44 45 45 45 44 43 42 41 40 39 41 43 44 47 49
47 51 49 45 46 47 39 44 43 41 36 31 39 30 32 37 39 41 41 37 38 39 41 41 40 38 38 40 40 43 43 43 44 41 39 36 32 30 34 35 37 37 43 46
47 46 46 44 46 47 43 43 41 39 36 31 35 29 34 38 35 37 36 37 37 39 40 37 39 41 41 40 39 39 39 41 40 38 37 33 31 31 32 32 32 34 37 42
47 47 47 46 45 45 45 41 40 37 33 23 34 34 29 31 38 38 36 36 39 39 38 38 40 41 39 38 38 37 38 39 38 37 35 32 30 29 28 28 29 31 35 36
43 43 42 45 40 42 40 35 27 23 21 24 32 28 37 37 40 40 35 35 37 37 36 36 36 36 38 37 37 39 38 36 36 34 33 31 30 29 27 27 28 28 30 32
34 33 41 44 41 39 37 36 26 19 18 24 31 26 33 36 39 39 38 36 37 36 36 36 36 36 37 36 38 37 36 34 34 33 31 31 29 28 27 28 27 26 27 29
35 36 40 41 41 41 36 31 36 27 8 12 24 30 35 35 36 35 34 35 34 35 35 36 36 36 35 35 37 34 34 34 33 31 30 29 28 27 25 25 25 26 28 30
39 33 37 37 39 38 36 39 29 29 17 10 21 26 31 30 33 33 33 32 34 33 34 34 34 35 35 35 35 34 34 32 32 30 29 28 27 26 25 24 24 25 25 27
39 35 32 35 32 33 30 30 32 32 28 20 13 25 34 35 36 32 32 34 34 33 33 34 34 34 34 33 32 33 32 30 30 29 28 26 25 25 24 23 23 23 26 25
38 33 25 31 36 37 34 33 35 28 24 25 25 26 40 39 37 34 33 34 35 36 34 33 33 32 31 31 32 31 30 29 29 28 26 25 24 24 22 21 21 22 21 23
37 30 20 29 28 33 31 31 34 33 31 25 21 24 37 36 34 34 31 32 34 34 32 32 31 30 30 30 30 29 28 27 27 25 24 23 22 21 21 20 21 21 21 21
42 31 34 32 39 34 29 29 33 33 27 27 28 31 34 34 34 31 31 32 31 31 31 29 28 29 28 29 27 26 26 26 24 23 22 20 20 20 19 20 19 19 20 19
37 27 29 34 34 31 32 32 32 30 32 27 29 31 37 42 41 38 33 32 30 29 29 28 28 28 27 26 26 25 25 23 22 20 19 19 20 20 19 18 18 18 19 20
32 26 28 27 29 29 27 30 31 32 33 32 32 31 44 44 36 30 30 30 29 28 28 28 29 28 27 26 24 25 21 20 20 18 18 19 18 18 17 16 16 16 17 17
27 27 23 24 27 23 19 25 27 31 33 33 25 34 42 38 34 30 29 29 28 28 28 27 26 25 25 23 24 19 19 19 18 17 16 16 17 14 14 14 14 14 14 16
28 27 24 20 22 16 32 29 30 29 32 35 35 38 37 32 31 30 30 27 28 27 26 25 23 21 21 21 20 19 18 17 15 14 14 15 13 12 12 11 12 12 14 14
36 29 21 19 17 24 31 34 26 25 31 33 33 36 34 29 28 24 27 27 25 24 24 23 22 21 19 19 18 16 14 14 13 12 12 12 11 8 8 7 10 12 12 13
29 31 26 18 14 11 25 26 31 31 20 32 34 32 28 27 18 23 26 26 24 24 22 21 20 19 18 17 16 13 11 11 10 11 10 10 8 6 7 9 12 13 15 17
21 22 19 21 18 19 30 29 32 18 27 31 32 29 28 26 28 27 26 24 23 21 20 20 18 16 15 15 13 9 9 8 9 9 8 6 6 6 10 10 12 13 14 17
22 19 18 20 15 14 33 29 27 32 31 31 30 29 29 29 26 25 24 21 20 18 17 18 14 13 13 13 9 6 5 8 7 5 3 2 4 8 9 9 10 12 13 16
23 27 21 23 24 32 35 33 36 34 31 31 30 30 30 27 26 25 21 19 17 16 16 15 11 10 10 10 8 3 5 5 3 -2 -2 3 6 7 9 8 8 10 12 15
26 33 27 24 30 30 32 35 36 34 33 31 31 29 28 25 24 20 18 18 16 15 13 11 8 6 6 6 5 3 3 1 -4 -5 -0 5 5 5 7 8 9 9 11 12
30 31 28 27 30 32 33 35 35 33 32 30 27 27 27 24 20 19 16 14 13 12 10 8 5 4 3 3 1 1 -1 -4 -6 -3 2 4 4 3 5 7 6 9 12 14
31 29 27 26 33 35 33 37 36 31 30 30 26 21 23 23 19 16 13 13 11 8 7 4 3 2 1 -1 -2 -3 -6 -6 -8 -5 -0 2 2 3 4 4 3 9 12 14

GFSCGP_sfc_temp_012.txt.gz
Temp
51 47 43 46 47 46 43 41 41 43 50 45 45 47 44 46 42 38 37 38 38 40 43 42 42 41 40 41 40 40 41 41 42 41 39 38 37 38 39 40 41 41 42 43
48 43 48 49 48 46 43 41 39 45 46 44 43 42 46 44 44 43 40 37 38 39 40 41 40 39 39 38 38 40 41 41 40 39 39 38 37 36 36 37 37 38 38 38
45 48 51 49 45 44 41 39 38 40 41 42 40 37 44 41 42 40 40 40 39 39 39 40 40 36 37 37 37 40 40 39 39 38 39 37 36 35 34 34 33 34 35 35
45 48 48 45 44 45 38 42 42 40 35 31 38 30 36 35 39 39 40 36 37 37 39 40 39 35 35 38 37 38 39 38 40 37 34 32 30 29 32 31 32 32 33 33
47 45 44 43 45 46 42 41 39 37 33 30 33 29 35 34 34 36 38 37 35 36 37 38 39 39 39 39 36 36 36 37 37 35 33 31 30 31 31 31 30 30 31 32
45 45 46 45 43 43 43 40 38 34 30 22 32 31 29 29 37 38 39 36 36 35 36 38 39 39 38 37 35 34 34 35 35 34 32 30 29 29 28 27 27 27 28 29
40 41 40 44 40 41 40 35 27 23 19 25 30 27 40 39 38 40 39 36 35 36 35 36 36 35 35 35 34 34 35 33 34 32 31 30 29 28 27 26 26 25 25 26
34 34 39 43 42 39 36 37 26 18 19 30 29 26 34 35 37 40 41 37 35 34 35 35 35 34 34 34 34 33 32 32 32 32 31 31 29 28 27 27 26 24 25 24
33 33 38 39 40 42 36 32 35 26 6 12 25 30 37 33 32 33 33 34 33 33 33 34 35 34 34 33 33 32 31 32 32 31 30 29 29 28 26 26 25 25 25 25
39 33 35 36 38 37 36 39 27 25 16 12 22 26 33 29 29 30 31 32 32 32 33 34 34 35 34 33 32 31 30 29 30 29 29 29 27 27 26 25 24 24 24 24
38 37 31 34 32 34 30 30 31 32 27 20 18 32 34 34 36 31 33 34 32 33 33 34 34 33 32 32 30 29 27 27 28 28 27 26 26 25 25 24 23 23 24 23
38 33 27 30 33 35 32 34 35 27 21 27 22 28 39 38 38 37 35 34 32 33 33 33 32 31 30 29 28 27 26 26 28 27 25 24 24 24 23 22 23 23 21 22
38 30 21 28 29 30 30 31 35 32 31 26 18 29 36 34 33 36 32 32 33 32 31 31 30 29 28 26 25 25 24 25 25 24 23 22 22 21 21 21 21 21 20 20
44 32 32 33 36 32 27 28 31 35 29 28 28 31 39 36 32 31 31 31 31 30 31 29 27 27 25 26 24 23 24 24 23 22 21 19 20 20 20 20 20 19 19 17
38 30 30 38 39 31 34 35 29 30 34 29 33 34 40 44 40 33 34 31 29 29 29 27 28 25 23 24 23 23 22 22 21 19 18 18 19 20 19 18 17 17 17 17
32 30 30 29 33 32 30 34 33 33 34 34 34 33 45 46 37 30 31 31 30 29 28 29 28 27 26 25 23 24 20 19 20 17 18 18 18 18 17 16 15 15 15 15
27 28 26 27 29 26 21 29 30 33 35 34 26 36 43 39 32 30 29 30 30 29 29 27 25 24 23 21 22 17 17 18 17 16 15 15 16 14 14 13 12 12 13 14
28 29 28 25 24 18 38 31 34 32 35 36 36 39 38 32 29 29 31 30 29 28 27 26 22 20 19 20 18 17 17 16 15 13 13 14 12 11 10 10 9 11 13 14
39 35 28 23 24 28 35 37 28 26 34 35 36 38 39 28 26 23 28 27 26 24 24 22 22 20 18 17 16 15 14 13 12 11 11 11 9 6 7 5 8 11 11 12
33 34 29 22 18 19 39 28 32 33 25 39 36 36 27 29 21 23 25 25 23 23 22 20 19 19 17 15 14 12 11 10 9 9 9 8 7 4 4 8 8 9 10 12
23 24 24 26 24 22 34 30 32 22 34 32 33 31 28 28 29 27 26 23 23 21 19 18 17 15 14 14 12 8 9 7 8 7 6 5 4 4 8 7 7 9 9 12
23 21 20 23 18 18 34 29 30 35 31 31 30 29 30 27 25 26 25 22 19 17 17 17 14 13 13 12 8 6 5 7 6 4 1 0 2 7 7 5 7 7 8 8
26 32 25 27 26 34 37 33 38 35 31 31 31 31 30 26 24 25 22 20 18 17 16 14 11 10 10 9 7 3 5 5 2 -3 -4 -1 5 6 6 4 5 5 6 8
26 33 30 28 37 33 32 36 38 34 35 33 33 32 31 29 26 23 21 19 17 15 13 11 9 7 6 6 5 3 3 1 -5 -8 -3 3 3 3 5 6 7 5 6 6
33 32 31 30 35 33 36 36 36 34 33 32 31 31 32 29 25 22 19 17 15 13 11 9 7 5 4 3 2 1 -1 -5 -7 -4 -0 0 2 2 3 6 5 6 8 10
33 35 31 33 37 39 38 36 37 34 31 33 31 25 26 28 24 21 17 15 13 10 8 6 4 2 1 -1 -1 -3 -7 -9 -11 -7 -3 -2 -0 1 3 2 3 10 11 12

GFSCGP_sfc_temp_015.txt.gz
Temp
49 46 43 46 46 44 41 39 39 42 48 44 43 45 52 44 41 39 36 38 39 40 41 41 41 40 39 38 39 39 39 39 38 36 35 35 33 34 33 34 35 36 36 36
46 44 48 47 47 44 41 38 38 43 43 43 41 41 48 44 43 44 42 40 39 39 38 39 38 38 38 38 38 38 38 38 38 36 35 34 32 32 32 34 34 34 34 34
44 47 49 47 42 42 39 38 37 40 40 41 37 34 41 40 42 43 44 43 42 41 38 38 38 37 36 36 36 38 38 38 37 36 35 34 33 32 30 32 32 33 33 33
44 46 46 43 42 43 37 41 40 39 35 31 38 30 36 39 41 38 40 39 40 39 39 39 38 37 36 37 36 37 38 37 38 36 33 30 28 28 30 30 31 31 32 31
45 44 43 42 44 44 42 41 37 36 33 29 30 27 32 34 37 43 38 39 40 40 39 37 37 39 38 38 36 35 35 35 36 34 32 29 27 30 30 30 29 29 30 30
44 44 45 44 42 42 43 38 36 31 29 22 30 30 28 34 38 39 37 39 39 37 36 37 38 38 37 36 35 34 34 34 34 33 31 29 27 28 28 28 26 27 28 28
39 41 40 43 39 39 39 35 27 24 20 25 29 26 39 43 44 41 39 38 37 38 36 36 35 35 35 34 34 34 33 33 32 31 30 29 28 27 26 26 26 26 26 26
36 38 39 42 41 39 35 37 27 18 18 29 27 26 35 39 37 36 38 39 38 36 37 35 34 34 34 34 33 32 32 30 30 30 28 28 27 27 27 27 26 26 25 25
33 33 37 37 38 40 35 32 35 27 5 12 27 30 37 34 34 32 34 34 34 35 34 34 34 34 33 32 32 31 30 29 28 28 27 26 25 26 26 26 26 25 25 27
42 36 34 35 36 35 34 38 29 24 14 10 21 26 34 36 35 31 30 32 33 34 33 33 33 33 33 32 32 30 29 27 27 27 26 28 26 26 25 25 24 24 25 25
39 39 32 34 32 33 31 30 31 30 25 17 13 30 36 39 37 31 32 34 34 33 34 32 32 33 32 31 29 28 27 26 26 27 25 24 24 24 24 24 23 23 24 24
39 35 27 30 31 33 33 35 36 27 21 20 21 32 40 39 39 34 34 35 34 34 33 31 32 31 29 29 27 26 25 25 26 25 24 23 23 23 22 21 22 23 22 22
40 32 21 27 29 30 30 32 34 32 28 28 22 32 36 36 32 34 34 34 34 32 30 30 29 28 28 27 25 24 23 23 23 22 22 21 21 20 20 20 21 21 21 20
48 34 32 34 35 30 26 30 32 34 26 31 32 35 43 44 41 34 32 32 32 32 32 29 27 27 25 26 23 22 21 21 21 20 20 19 19 19 19 19 20 19 19 17
40 35 32 41 43 33 34 37 29 29 34 31 37 37 43 47 49 42 39 34 31 31 30 29 27 25 24 22 21 21 20 20 19 18 18 18 19 19 18 18 17 17 17 16
33 33 31 32 35 33 32 37 36 34 36 36 37 35 48 51 51 47 36 33 31 31 30 30 29 28 27 26 22 24 19 17 19 16 17 17 17 17 16 16 15 14 14 14
27 27 24 29 32 29 25 35 36 39 40 38 31 39 47 45 37 36 32 33 32 31 31 29 27 26 25 21 23 16 16 17 16 16 15 15 15 13 13 12 12 11 11 12
26 26 27 26 25 20 39 35 39 36 40 41 41 43 45 44 33 34 33 32 32 31 29 28 25 21 20 19 17 16 17 15 15 13 13 13 11 10 9 9 8 9 12 11
40 33 30 26 26 34 38 39 32 31 38 41 38 41 43 30 28 29 29 32 32 30 27 24 22 20 18 16 15 14 14 13 11 11 10 10 9 6 6 4 6 10 9 9
33 36 35 30 24 24 39 31 32 35 26 47 42 40 40 30 23 35 26 27 25 24 23 20 19 18 16 14 14 12 11 9 9 9 8 8 6 3 3 5 8 8 7 9
26 26 26 28 27 30 39 31 33 25 37 36 38 38 29 30 34 30 27 24 24 22 19 19 17 15 13 13 11 10 9 8 7 7 6 5 4 2 4 7 6 6 7 8
26 24 24 26 26 23 33 28 32 41 34 36 34 30 30 29 26 27 26 21 21 18 18 17 15 13 12 12 9 7 7 7 6 4 1 -0 -1 3 6 4 5 6 5 5
31 36 32 32 32 36 36 45 41 37 36 32 33 31 33 28 26 26 23 20 19 18 18 17 13 11 10 9 8 4 4 4 2 -4 -5 -3 2 4 4 3 4 4 5 5
34 36 34 29 40 35 34 38 36 36 35 33 33 33 32 29 26 25 22 20 19 17 14 13 11 9 6 6 6 3 2 0 -8 -9 -4 1 1 1 3 5 5 4 5 6
41 34 35 33 39 35 39 39 40 37 34 32 32 31 32 30 26 23 22 20 18 16 13 12 10 7 4 4 2 -0 -2 -5 -7 -5 -1 -1 0 -1 1 4 3 5 8 11
37 39 33 35 45 43 46 42 39 35 34 35 31 28 31 31 26 24 22 19 16 12 10 8 7 5 2 1 -0 -4 -9 -10 -12 -8 -4 -4 -2 -2 1 0 1 8 11 13

GFSCGP_sfc_temp_021.txt.gz
Temp
47 46 43 48 46 44 43 40 41 42 46 44 42 45 52 56 44 47 45 42 43 44 48 46 44 43 42 41 41 42 42 42 42 40 40 38 39 39 39 39 39 39 38 37
45 43 47 48 44 44 41 39 39 42 41 42 41 42 48 51 54 54 51 45 44 45 42 42 43 41 40 41 41 41 41 41 41 40 39 39 39 38 38 38 38 38 37 37
43 45 46 47 42 42 39 38 38 41 39 39 36 35 39 45 47 49 50 48 45 45 42 41 40 41 40 40 40 40 40 40 40 39 38 37 37 37 36 37 37 37 36 36
44 44 46 42 43 43 38 41 40 38 36 32 38 36 38 44 48 49 51 43 46 43 44 43 41 41 40 40 41 41 40 39 39 38 37 35 35 34 36 35 36 36 35 34
44 41 40 41 42 44 41 40 38 36 34 29 31 28 37 36 42 50 52 46 44 43 43 42 42 42 42 41 39 40 39 38 38 37 37 35 33 33 34 33 32 32 33 33
42 42 44 44 40 40 41 38 35 30 29 22 36 34 34 36 42 46 49 48 45 40 40 42 43 43 41 41 39 38 37 37 37 36 35 34 33 32 31 31 30 31 32 32
38 39 39 41 39 38 38 36 29 26 23 30 28 27 43 43 44 48 53 49 44 40 38 39 39 39 40 38 38 37 36 36 36 35 34 33 32 31 30 30 29 29 29 30
37 39 38 41 42 39 35 37 29 21 23 37 26 26 42 43 51 45 44 42 40 39 37 38 39 39 40 39 37 37 35 35 34 33 33 32 31 31 30 29 29 28 28 28
35 36 36 37 38 39 34 32 37 28 8 17 35 37 40 41 41 39 41 38 39 39 36 37 37 39 39 38 37 36 35 34 33 32 32 30 30 29 28 28 28 27 27 28
42 38 34 35 36 34 36 38 31 28 22 15 36 39 43 42 44 44 42 42 40 39 35 35 37 37 38 38 36 35 34 33 32 31 30 30 29 28 27 27 26 26 26 26
44 42 36 34 32 33 31 31 31 33 28 22 27 39 41 46 46 47 46 41 41 39 36 35 36 37 37 36 34 33 31 30 29 30 28 27 27 26 26 25 25 25 25 25
42 39 35 38 30 33 33 35 37 30 26 20 22 35 46 44 45 42 44 41 40 39 36 35 35 34 34 35 31 30 29 29 29 27 26 25 25 24 24 23 23 24 23 23
42 35 27 32 29 30 32 32 34 33 30 31 24 37 47 40 42 42 42 38 39 38 35 32 32 33 34 32 30 28 28 27 26 25 24 23 22 22 21 22 22 22 21 21
48 35 35 35 40 34 29 30 35 37 33 34 34 40 48 52 48 46 41 37 39 38 37 32 32 33 35 31 28 26 24 23 23 22 21 20 20 20 20 21 20 20 20 18
43 35 38 40 43 38 35 35 35 31 36 33 40 40 46 52 52 53 54 54 48 35 33 32 32 32 31 29 26 24 23 22 21 20 19 19 20 20 19 18 18 18 18 17
35 35 38 34 40 40 36 38 40 39 38 37 39 38 51 55 55 53 53 53 49 44 36 35 34 32 29 29 25 25 21 19 20 18 18 19 18 17 16 16 16 15 15 15
31 30 27 29 37 33 25 35 40 42 45 43 36 44 51 49 49 50 50 50 49 48 36 34 33 32 31 29 27 21 19 19 17 18 17 16 15 14 14 13 12 12 12 12
35 30 33 27 29 19 35 43 43 40 44 46 45 47 49 50 52 52 49 49 48 39 35 33 32 31 28 24 21 18 18 17 17 15 14 13 12 11 11 10 10 10 11 11
41 37 29 25 25 33 35 40 36 34 38 46 46 48 49 51 42 45 39 41 44 38 33 31 31 26 22 20 18 17 16 15 14 13 12 11 10 8 7 5 7 9 10 9
38 39 33 28 23 22 36 44 47 41 31 48 49 49 49 47 36 45 46 37 32 30 29 26 23 22 19 17 17 16 14 13 11 11 11 10 8 5 4 6 6 8 7 8
25 30 27 27 26 31 39 46 40 27 37 52 46 47 47 43 47 40 28 27 27 26 24 22 21 19 16 16 17 14 12 11 11 9 8 7 6 4 4 6 5 5 5 7
33 26 26 28 25 23 41 37 35 45 51 51 47 41 41 42 40 32 28 24 22 20 22 21 17 15 15 16 16 13 11 10 8 7 5 4 3 3 5 1 2 4 4 3
33 39 37 35 33 41 40 45 49 51 49 50 42 40 42 39 35 30 25 22 21 21 20 20 16 14 14 15 15 11 9 9 5 3 2 1 3 4 2 -0 2 2 3 4
38 46 39 40 43 37 38 43 47 48 48 50 46 42 36 37 32 28 23 22 21 20 18 17 14 12 10 12 13 10 8 6 0 0 3 4 3 2 2 3 5 2 4 5
37 36 37 38 42 45 46 47 49 48 40 39 39 39 39 37 30 29 24 21 21 19 17 16 15 12 10 9 7 6 5 4 2 3 3 1 1 -2 1 3 1 5 8 12
40 39 34 35 43 44 46 50 51 48 47 46 41 34 36 37 34 28 25 23 21 17 16 15 14 11 8 6 4 2 1 2 3 2 1 -1 -1 -1 -0 -1 -1 7 11 13

GFSCGP_sfc_temp_024.txt.gz
Temp
61 62 59 66 66 66 60 57 59 64 57 56 58 57 62 67 66 62 65 68 66 62 65 64 60 58 56 56 55 55 53 54 53 51 50 49 50 51 50 50 49 48 47 45
59 57 66 62 59 56 56 56 57 61 53 52 56 53 58 62 63 65 67 68 68 64 62 61 58 55 53 53 53 53 53 53 52 52 50 51 50 50 50 49 48 47 46 45
59 63 55 56 55 53 55 55 58 53 52 51 48 51 54 60 60 63 63 66 68 64 60 58 53 53 53 52 52 52 52 52 51 49 48 46 46 47 46 48 48 47 45 44
57 59 56 54 54 56 52 57 54 50 48 49 50 45 58 62 61 60 67 69 64 61 58 57 53 53 53 53 52 51 51 50 49 48 46 46 47 48 49 47 47 45 44 43
57 50 50 51 55 56 55 50 50 48 47 42 50 43 55 49 52 59 65 69 64 63 58 57 53 53 53 51 50 50 50 48 47 45 47 46 45 46 47 44 42 43 43 42
54 53 53 56 48 50 49 49 46 43 45 38 51 48 53 53 56 61 64 68 61 57 57 58 56 53 52 51 49 50 49 48 46 46 47 46 45 44 43 42 41 42 41 41
52 51 51 51 50 49 49 49 45 42 39 41 46 41 51 57 60 61 66 70 60 58 56 55 52 50 50 48 47 48 48 47 47 46 46 45 44 43 41 41 40 39 39 40
48 49 46 51 55 54 47 51 44 35 39 44 39 38 54 60 64 64 58 59 55 54 54 53 52 51 49 46 47 47 47 47 47 46 44 44 43 42 41 40 39 38 38 38
45 48 45 44 47 51 45 44 49 42 29 32 49 56 56 53 54 54 53 55 57 56 55 53 51 50 50 47 47 47 47 47 46 45 44 42 41 39 39 38 38 37 37 36
53 45 45 42 46 45 45 47 40 42 33 34 46 48 52 53 53 55 53 55 61 58 56 53 51 50 49 49 48 48 48 46 45 44 43 41 39 38 38 36 35 35 35 34
51 49 45 42 41 47 39 42 42 41 38 37 36 46 59 57 56 54 56 60 61 58 57 55 52 50 49 49 48 47 47 46 43 42 40 38 37 36 35 34 34 33 33 32
51 46 44 49 42 42 45 47 47 41 37 40 41 42 55 58 58 56 56 55 58 57 58 57 52 49 47 47 47 45 46 43 42 40 38 36 35 34 33 33 32 32 30 31
46 39 35 40 37 39 40 41 46 48 46 39 36 42 59 62 61 60 58 59 55 57 56 53 50 46 45 45 44 45 43 41 39 36 35 33 32 32 31 31 30 29 28 28
50 39 42 39 47 46 39 40 42 44 38 40 41 46 54 58 58 60 61 56 55 55 52 55 50 47 45 44 43 42 41 38 35 33 32 31 31 30 29 28 27 26 26 25
44 36 40 43 45 45 43 45 44 38 42 39 45 47 54 58 59 62 64 61 60 60 52 53 50 46 44 42 40 39 37 34 32 31 30 30 29 28 26 25 25 25 24 24
41 34 38 34 40 40 38 43 44 44 44 44 43 41 54 57 59 58 57 58 56 57 59 54 48 44 41 40 38 35 33 30 30 29 28 27 25 24 22 22 21 21 21 22
37 36 34 28 38 36 29 36 41 43 48 47 39 47 55 54 55 55 57 58 55 55 55 53 45 42 39 37 35 32 29 28 27 26 24 23 22 20 20 19 18 18 19 19
37 35 34 28 31 21 38 48 46 44 47 50 49 51 53 54 56 56 58 55 54 55 54 49 45 43 39 37 34 30 26 24 24 23 20 20 19 18 17 16 16 17 18 18
44 38 29 26 27 35 38 44 42 41 41 50 48 51 53 55 53 53 58 58 57 58 57 52 44 41 37 33 29 25 23 23 21 20 20 19 17 14 14 12 14 16 16 15
40 40 32 28 24 23 40 48 51 48 33 52 52 50 50 51 43 51 59 53 51 43 39 37 36 32 30 27 26 24 21 20 19 20 19 17 15 12 11 12 12 14 13 13
29 31 27 28 27 32 45 48 46 30 38 53 52 52 50 46 50 56 44 42 38 35 32 31 29 27 25 24 24 23 21 20 21 19 16 14 13 11 11 11 12 11 11 12
36 30 28 28 25 24 48 48 40 50 56 57 56 50 46 48 49 48 40 35 32 29 28 27 25 23 23 24 24 21 20 19 16 15 13 11 9 11 11 7 9 9 10 10
33 43 40 39 39 49 53 50 54 54 54 54 53 51 50 49 47 45 35 30 30 28 27 25 22 20 21 23 23 20 17 15 13 10 9 8 9 9 8 8 9 12 10 11
45 49 41 42 47 49 50 53 54 55 53 54 53 50 45 47 47 39 34 30 26 25 23 22 20 18 18 20 20 17 15 13 9 9 9 9 9 9 8 11 11 10 11 11
34 35 33 32 35 41 46 50 48 46 46 44 46 44 46 46 41 41 36 31 27 23 22 21 20 19 17 16 13 13 11 8 9 10 10 9 9 9 9 10 10 11 13 14
39 37 33 33 44 43 44 49 50 47 49 50 47 46 45 41 45 44 39 33 27 23 20 19 20 18 14 11 9 8 8 9 9 8 8 8 8 8 8 9 10 10 11 13

GFSCGP_sfc_temp_027.txt.gz
Temp
67 63 59 67 69 68 66 63 62 67 71 62 62 62 67 72 72 71 73 74 76 76 80 74 70 69 66 65 63 60 58 58 56 53 51 51 51 52 52 53 52 51 50 49
61 57 68 71 68 65 65 59 59 66 68 58 60 59 66 69 69 70 71 73 75 77 77 72 69 66 63 62 61 60 58 57 56 55 54 55 54 54 54 52 50 50 49 48
59 67 64 63 63 58 59 57 59 60 64 57 55 53 59 66 68 70 71 73 74 74 75 70 66 63 61 60 59 58 58 57 56 55 55 52 51 49 48 48 48 48 49 47
62 67 63 62 57 61 53 65 62 58 54 50 57 46 60 66 67 68 69 72 76 78 73 70 64 62 60 58 58 58 57 56 55 55 52 49 47 47 50 51 50 48 48 47
60 60 54 53 58 62 57 55 56 55 52 52 53 49 56 61 59 62 66 70 76 76 67 65 62 60 60 58 57 56 56 54 54 52 51 49 49 51 52 49 47 46 47 46
58 58 58 60 54 55 55 53 53 51 51 41 53 52 53 60 59 63 65 69 69 66 65 64 63 61 59 58 56 53 53 54 52 51 51 50 49 49 47 46 45 45 46 45
57 56 59 56 53 52 52 51 46 43 41 41 59 53 57 64 67 67 68 72 68 65 63 62 60 58 57 55 53 52 52 52 52 49 50 49 49 49 46 45 45 44 43 43
52 49 54 54 56 58 49 54 45 36 39 45 50 45 56 69 70 70 70 70 67 62 62 61 61 58 56 54 52 51 51 51 51 49 49 49 48 47 46 45 44 43 42 42
51 52 49 51 52 57 49 43 54 45 37 38 50 57 66 63 64 65 63 60 60 63 63 60 60 58 56 54 52 50 50 50 51 49 49 48 46 45 44 43 43 42 42 40
59 48 54 45 50 50 51 52 43 45 33 34 46 49 52 59 59 61 59 59 63 66 64 62 60 58 57 55 53 51 51 50 50 49 47 46 44 44 43 42 40 39 39 38
57 52 49 45 44 49 41 44 44 46 46 38 36 46 63 60 62 62 61 59 60 65 62 62 60 59 57 56 53 51 50 49 48 47 46 43 41 42 41 39 39 38 37 36
53 47 43 51 57 49 50 52 51 41 39 43 42 43 60 62 64 65 60 61 65 64 65 66 63 59 55 54 53 51 50 48 48 46 44 42 40 39 37 36 37 36 34 34
48 39 34 41 46 43 43 48 49 51 48 40 37 42 62 66 65 61 61 63 63 64 65 66 62 58 55 53 52 51 49 47 47 45 42 40 38 36 35 35 35 33 32 31
50 41 39 38 45 52 44 47 47 46 40 40 42 47 56 59 60 63 64 65 66 67 64 64 61 57 55 53 51 50 48 47 45 42 39 36 35 34 34 34 32 31 30 29
45 36 40 43 47 49 46 46 44 41 44 40 45 46 54 58 60 63 65 64 62 63 63 62 57 59 55 50 48 47 47 45 41 37 36 34 34 33 32 30 29 28 28 27
43 31 37 34 42 43 39 43 44 44 45 45 45 43 56 59 61 60 60 61 59 59 60 58 57 55 48 46 46 43 43 41 37 35 33 33 31 29 28 27 26 26 25 24
34 32 31 28 37 36 29 36 40 43 47 48 41 49 57 57 57 57 59 61 59 59 58 56 56 53 47 45 42 41 41 37 33 32 30 28 27 25 25 25 23 22 22 23
33 32 32 29 32 22 37 49 47 43 47 50 51 53 56 57 59 59 61 59 57 56 55 56 56 56 49 46 43 40 36 32 30 28 25 25 24 23 23 21 20 21 21 21
40 35 30 27 27 36 41 47 45 42 42 50 49 52 54 56 54 55 60 60 59 59 56 48 48 49 47 42 39 34 30 29 27 25 24 24 22 20 20 18 19 20 20 19
40 37 32 29 25 24 41 50 55 53 34 54 54 52 52 52 43 50 59 55 53 43 43 41 41 40 38 36 33 28 27 26 25 25 24 23 20 18 16 17 18 18 17 16
31 31 28 28 27 32 47 53 52 34 39 53 54 54 54 50 54 58 48 47 44 43 39 39 36 35 35 31 28 26 26 25 27 24 22 19 18 17 17 16 17 15 14 15
37 30 28 29 26 25 49 48 40 51 56 56 57 57 53 52 53 54 55 46 42 39 35 34 30 29 28 28 26 25 23 25 22 19 17 16 15 15 14 12 13 13 13 12
35 43 40 39 39 49 52 50 55 56 53 55 54 55 54 47 49 49 48 43 40 39 33 31 28 26 25 26 27 23 24 19 17 14 13 12 12 14 13 11 12 12 12 13
31 35 28 28 34 34 39 44 49 50 48 49 47 45 46 45 45 41 40 41 37 33 30 27 24 22 22 24 26 25 19 17 13 12 11 11 11 11 11 13 13 13 13 13
31 34 31 32 37 39 43 45 46 43 43 43 45 45 45 46 44 44 44 42 38 34 29 25 23 22 21 23 23 18 16 14 12 12 11 11 11 11 11 14 13 14 15 15
33 31 29 28 39 39 40 43 42 40 42 44 43 44 45 45 45 45 42 42 40 32 27 24 23 22 20 20 15 13 13 14 12 11 10 11 10 11 12 11 9 13 14 15

GFSCGP_sfc_temp_030.txt.gz
Temp
58 52 49 55 59 60 58 55 53 59 63 54 53 54 59 64 61 60 64 66 64 66 68 66 65 60 59 57 56 54 52 51 51 46 44 41 43 42 42 43 44 44 43 43
53 49 59 62 61 58 53 51 52 59 59 54 53 52 58 59 62 63 64 65 66 63 64 62 61 59 58 57 56 54 53 51 51 48 47 43 44 42 42 42 42 43 43 42
53 57 62 59 56 54 55 50 52 52 56 49 45 43 50 56 60 63 64 65 66 62 61 58 59 58 55 55 55 54 53 52 51 47 46 44 42 40 39 39 38 41 42 41
55 61 60 56 54 55 48 56 54 52 45 40 48 35 48 54 56 57 60 60 63 60 61 59 57 56 55 56 55 54 53 51 50 48 47 43 42 37 38 41 40 40 40 39
52 51 49 50 54 57 51 51 47 46 42 39 42 37 44 55 52 56 58 60 65 59 59 56 57 57 55 54 52 53 52 50 49 47 47 43 40 39 40 39 39 38 38 38
54 54 51 52 50 51 50 46 45 42 40 30 42 42 43 47 52 54 58 60 61 56 55 55 54 53 53 52 50 50 50 50 47 47 46 43 42 41 38 37 36 35 35 35
48 51 51 51 45 45 45 42 32 27 26 31 47 41 49 51 55 57 59 63 56 55 53 51 51 50 51 49 49 49 48 48 48 47 46 44 43 41 39 39 38 35 34 33
42 41 49 49 50 46 42 43 31 24 25 39 40 34 45 58 61 59 60 63 54 52 52 51 50 50 49 48 48 48 48 48 48 46 45 44 42 43 41 39 38 35 34 34
44 45 45 47 47 51 42 36 45 36 26 26 40 45 51 54 56 57 60 55 52 51 51 51 50 48 47 48 47 47 46 47 47 45 44 43 43 41 40 36 35 34 33 35
51 43 46 42 45 44 42 45 35 34 22 21 41 38 45 50 56 54 53 52 52 52 51 50 50 49 48 49 48 47 46 45 46 45 43 43 42 39 36 35 33 33 32 32
51 46 40 42 37 40 36 36 38 40 35 29 32 39 47 52 54 53 53 53 52 53 52 52 51 49 49 48 47 46 45 43 44 43 43 41 39 36 35 34 32 31 31 30
49 43 36 44 48 45 46 45 43 36 34 32 35 41 54 52 54 54 53 55 55 53 53 52 51 48 47 48 47 45 44 43 43 43 41 39 36 34 33 32 30 30 29 29
46 35 29 35 42 40 39 43 47 46 41 37 33 39 57 62 60 54 52 52 53 53 53 52 51 49 49 47 46 46 44 43 41 41 39 37 35 34 33 31 30 29 28 27
47 38 33 30 37 44 40 43 44 43 36 37 38 42 52 56 58 61 62 61 53 54 53 52 51 48 48 47 47 46 45 44 41 40 38 36 34 33 31 30 29 28 27 25
38 31 34 37 40 42 41 41 42 37 40 35 41 42 49 54 56 59 61 60 55 57 58 56 50 49 46 43 43 44 44 41 40 39 37 35 32 30 29 28 27 26 26 25
39 30 32 30 35 36 34 39 40 40 41 42 42 40 52 56 58 56 57 58 56 57 57 51 49 45 43 41 44 41 41 39 38 37 34 32 29 29 28 27 26 25 25 25
34 32 30 27 33 32 27 33 35 39 43 43 37 45 53 52 53 54 56 58 57 55 55 47 46 44 42 40 40 38 36 34 34 32 30 29 28 26 25 25 25 24 23 23
33 32 32 30 32 22 34 45 43 40 42 45 46 49 52 53 56 56 57 55 53 53 50 45 43 44 44 39 35 34 34 32 30 29 27 26 25 25 24 23 22 22 22 22
42 36 31 27 27 34 37 42 40 38 38 46 45 48 50 53 52 52 57 58 55 56 49 44 42 41 39 34 33 32 30 29 28 27 25 25 24 22 22 20 20 21 20 20
39 40 33 31 26 23 38 46 52 47 32 49 50 48 48 49 40 47 56 48 48 49 44 41 37 36 33 31 32 30 27 26 25 25 25 25 24 21 19 19 19 19 19 18
31 31 29 30 28 32 41 45 45 29 36 51 52 52 51 44 49 52 45 46 45 43 39 35 33 33 31 29 29 27 26 25 27 26 24 22 21 20 19 18 18 17 16 17
30 30 29 30 27 25 35 40 34 34 39 40 39 38 38 40 41 42 43 42 41 38 34 33 31 30 28 28 27 26 24 27 25 23 20 19 18 18 17 16 15 14 14 13
24 26 23 25 25 32 34 33 37 37 36 36 36 38 38 36 38 38 40 41 40 38 36 31 29 26 24 25 26 24 25 24 21 18 16 16 16 15 15 13 12 12 12 13
28 34 27 24 31 32 37 41 43 40 39 39 39 38 38 37 39 39 36 36 37 36 34 27 24 24 23 23 25 23 23 20 17 15 13 14 14 12 12 14 13 13 12 13
26 28 24 24 29 33 36 39 40 37 37 35 36 36 36 37 37 38 39 39 38 36 29 26 27 27 24 22 22 20 19 17 16 14 12 13 13 12 12 13 13 14 16 15
28 25 22 20 32 32 33 36 36 31 30 28 29 31 35 36 36 37 37 39 39 39 32 26 25 25 23 21 21 16 16 17 15 12 12 13 12 12 12 12 13 19 18 20

GFSCGP_sfc_temp_033.txt.gz
Temp
52 46 44 53 51 53 49 47 44 51 57 51 50 52 55 60 53 57 60 60 58 60 67 60 61 60 58 56 54 52 51 49 50 46 44 42 43 40 39 40 42 41 41 41
48 44 54 55 53 51 49 48 48 53 55 50 49 50 54 57 59 56 60 61 62 63 58 60 56 57 57 54 53 52 51 50 51 49 48 42 40 40 40 39 40 41 40 39
49 51 56 54 50 49 50 47 49 48 50 48 45 42 46 53 58 59 60 63 64 64 58 57 53 55 55 53 52 51 51 50 51 48 45 40 41 38 37 37 38 38 40 39
48 56 55 49 48 52 46 51 50 47 41 40 44 39 44 50 52 55 59 60 60 61 55 56 53 53 54 54 54 52 51 49 49 46 45 45 42 42 42 42 39 37 39 38
48 47 46 47 52 52 51 49 49 43 38 36 39 35 40 49 47 52 58 60 64 61 55 52 53 56 55 54 52 51 50 48 48 45 47 46 43 43 36 35 36 38 36 37
48 49 50 49 47 49 48 44 42 39 36 31 37 39 43 41 51 51 59 59 62 58 56 53 54 53 51 49 51 49 48 48 47 46 46 45 43 39 36 37 37 37 37 35
44 47 51 50 44 44 45 42 30 26 24 30 42 36 48 50 52 56 59 61 62 54 52 49 47 49 48 47 48 49 48 47 47 46 45 44 44 42 40 38 39 36 35 34
37 41 45 48 51 45 41 46 33 24 25 37 35 31 42 55 61 56 58 61 54 51 51 49 50 49 48 48 46 48 47 48 45 45 45 44 43 42 42 39 39 37 37 36
38 39 43 43 45 50 41 36 47 35 25 23 42 42 49 51 52 53 55 53 51 49 48 48 47 46 45 45 46 47 47 47 45 45 45 44 42 43 42 39 37 38 35 34
47 40 42 40 42 43 41 43 34 34 25 21 37 35 44 46 56 58 51 50 50 48 48 48 47 46 46 46 47 46 46 46 45 45 45 44 41 42 41 37 35 33 33 32
44 43 41 38 37 38 35 36 37 38 34 33 32 40 48 48 49 52 52 51 49 50 49 49 48 46 46 45 44 44 43 43 44 43 43 42 40 39 35 36 36 34 33 31
45 40 32 40 44 43 44 44 46 37 36 29 33 39 53 55 54 52 49 52 52 52 53 51 49 45 45 46 45 44 44 43 43 43 41 40 37 34 35 35 33 32 32 30
43 33 28 30 39 36 39 40 45 43 37 35 30 37 54 58 53 53 51 52 53 53 53 50 48 46 47 46 44 44 44 43 42 41 38 37 35 34 35 33 31 31 30 29
47 34 32 32 38 42 37 41 41 40 34 35 36 40 49 53 55 58 60 56 56 54 52 51 48 46 45 46 46 45 44 43 40 39 37 36 35 35 34 31 30 30 29 27
42 31 33 36 39 39 39 40 41 39 38 30 35 38 46 51 54 56 59 59 56 55 53 52 51 49 48 45 43 43 43 39 38 37 37 36 35 34 30 29 30 28 27 27
39 32 34 31 34 35 34 38 39 39 38 39 40 38 49 51 54 54 55 57 55 57 58 56 52 49 45 41 43 40 40 38 37 37 36 35 32 30 29 30 28 27 26 25
37 32 31 28 34 34 28 34 36 38 41 41 34 43 50 49 51 52 54 55 55 56 56 50 50 49 46 43 40 38 39 36 35 35 34 31 30 28 28 28 26 25 25 25
33 32 32 30 32 22 34 44 42 39 41 43 44 47 50 51 53 54 56 55 55 55 50 48 46 47 43 40 38 35 32 32 33 31 29 28 28 27 26 25 25 25 24 24
40 35 30 27 27 33 34 38 37 35 35 44 43 47 49 51 51 51 54 50 53 54 54 51 47 43 42 40 35 32 30 31 30 28 27 27 26 24 24 23 23 23 23 22
39 38 32 30 26 23 39 42 48 47 32 33 34 33 33 36 35 41 41 43 43 45 44 42 39 39 38 35 30 30 28 28 28 29 28 26 26 24 23 23 22 22 22 21
28 31 28 28 27 31 31 33 36 27 24 32 33 33 33 31 34 37 38 40 41 38 37 36 34 35 35 29 28 28 26 27 29 27 26 24 24 23 23 21 23 20 20 19
19 18 21 23 26 24 32 32 23 26 32 34 32 35 34 35 36 37 39 40 41 41 40 36 33 31 29 27 27 26 26 27 24 24 23 22 21 22 20 20 19 19 18 16
19 24 17 18 20 29 34 32 37 34 33 34 33 35 35 33 34 37 38 39 40 40 39 36 29 30 27 25 25 24 25 24 22 21 20 19 19 19 19 18 17 16 16 14
22 27 21 19 27 28 31 35 38 34 33 33 33 31 31 30 31 31 33 35 36 38 37 36 28 28 28 25 26 28 25 24 21 20 18 16 17 16 17 19 17 16 14 14
23 25 18 20 26 29 32 34 32 30 32 30 28 28 28 29 29 30 31 32 34 35 36 33 35 34 33 28 26 24 24 21 19 18 16 16 16 16 15 16 16 16 18 19
27 23 20 18 29 25 26 29 28 22 22 23 23 23 25 24 24 26 26 29 32 32 34 35 32 31 32 26 25 24 23 21 20 17 16 16 15 15 15 15 15 21 21 24

GFSCGP_sfc_temp_036.txt.gz
Temp
49 44 43 51 49 54 43 42 42 47 52 47 47 49 55 60 53 53 58 60 56 56 65 62 58 57 56 55 53 53 52 50 49 46 44 44 44 42 39 38 41 40 40 39
43 40 52 52 50 47 45 45 45 51 54 46 48 50 54 55 59 60 58 60 61 63 65 64 55 53 54 54 53 52 52 49 51 51 49 46 46 39 43 40 40 41 39 38
47 50 53 50 47 46 45 43 45 45 47 44 44 46 47 50 56 62 63 61 64 64 63 65 53 51 53 54 52 51 51 49 52 50 47 38 38 36 36 36 38 38 39 38
44 53 52 45 45 48 44 49 49 46 38 37 43 39 42 49 51 55 59 60 59 61 63 65 52 49 51 54 53 52 51 49 51 48 45 45 44 43 42 43 38 35 38 37
46 45 44 43 49 48 48 49 46 41 36 33 37 33 39 48 47 53 59 60 59 62 62 59 51 54 53 53 51 51 50 48 49 45 47 46 44 43 36 35 36 37 36 37
47 47 48 47 47 47 46 42 40 35 34 28 42 37 45 41 48 52 56 60 62 64 66 52 54 50 48 46 48 49 48 47 45 44 45 46 45 37 36 35 37 37 36 35
40 44 47 49 44 43 44 38 30 25 23 29 40 35 48 48 51 52 57 60 62 64 62 53 49 46 45 45 45 46 46 45 45 43 44 45 44 40 41 39 39 37 36 34
36 40 45 46 48 43 39 44 30 21 28 38 33 30 46 52 57 59 57 61 61 58 52 52 49 46 46 47 46 47 45 46 45 44 45 45 44 42 43 40 40 38 38 38
36 37 42 44 44 49 38 35 46 33 20 21 34 42 53 51 50 50 51 53 54 50 50 49 47 46 45 45 46 47 45 46 45 44 45 43 43 43 43 40 39 39 38 37
45 39 41 40 41 42 42 43 33 31 21 20 31 33 41 49 51 55 55 52 55 51 49 48 47 46 44 44 44 44 45 46 44 43 44 44 43 43 42 38 37 36 36 34
45 42 40 37 36 39 35 36 36 36 33 32 30 36 55 54 49 48 50 50 49 48 48 48 48 47 44 43 43 43 41 43 42 43 44 44 41 40 41 37 36 35 34 33
46 39 32 39 48 43 41 40 43 35 34 34 37 37 57 55 50 50 50 52 50 49 52 50 49 47 44 44 42 43 43 42 44 43 43 42 39 37 38 36 35 33 34 33
43 35 29 29 34 41 38 42 43 43 42 36 31 35 56 57 56 52 49 53 52 53 53 52 49 48 46 46 45 44 43 43 43 40 39 38 36 36 37 37 35 34 33 32
47 40 34 29 37 40 35 39 44 41 34 36 37 39 47 51 52 55 57 59 60 60 59 54 52 50 50 47 46 42 43 44 42 40 38 37 36 37 37 36 33 33 32 30
43 33 35 36 37 39 38 38 40 37 39 33 37 38 44 50 52 54 54 52 50 53 54 54 53 53 49 48 46 45 45 42 39 37 36 37 37 36 35 32 31 31 31 31
36 32 33 32 35 34 32 37 38 39 40 39 41 39 49 52 54 53 53 54 53 54 56 57 53 50 45 45 47 41 43 40 38 38 37 37 35 33 31 30 30 30 29 28
32 30 29 26 35 32 28 34 36 38 41 40 34 42 49 48 49 51 52 46 41 41 42 44 49 49 49 49 45 45 43 38 35 36 35 32 32 30 29 29 28 28 27 27
32 30 30 25 27 18 36 41 41 38 41 38 33 31 32 32 35 38 38 37 39 40 40 41 42 44 47 45 41 40 35 33 33 33 31 29 29 28 27 27 27 26 26 25
36 31 26 23 24 30 35 31 29 29 28 26 26 28 31 32 35 36 39 39 38 40 40 40 40 39 40 40 41 36 32 31 30 30 30 29 28 26 25 25 25 25 24 23
35 36 28 26 22 21 20 28 31 30 24 26 27 27 28 30 23 29 37 38 39 40 40 40 39 38 36 34 30 31 29 28 29 29 28 27 27 26 25 26 24 24 25 23
10 11 14 19 17 22 25 30 33 22 18 29 30 30 29 26 29 33 35 35 37 38 38 41 39 36 35 30 28 28 27 26 26 25 24 24 25 25 25 24 24 22 22 22
15 14 13 13 6 10 29 30 20 26 32 31 31 31 29 30 31 32 33 33 34 34 36 37 37 37 34 30 28 27 27 27 22 22 22 21 21 24 23 21 21 21 21 19
12 18 14 16 15 27 31 29 33 33 28 28 29 30 32 28 27 28 29 31 32 32 33 35 35 36 36 29 26 28 29 25 21 19 18 21 21 22 22 21 19 19 19 18
19 24 15 14 24 26 30 33 35 31 28 30 30 26 25 24 26 27 27 28 29 30 30 32 33 33 34 35 28 29 28 24 24 24 21 19 19 19 20 21 20 19 19 18
21 24 17 19 25 27 29 31 29 27 27 25 25 24 23 23 22 23 23 23 25 26 28 29 28 29 31 33 32 29 25 24 23 23 20 20 20 20 19 20 20 20 20 22
26 23 20 18 29 28 28 31 26 21 20 20 19 19 21 21 19 20 19 22 22 22 23 21 21 22 24 27 29 32 26 24 24 21 19 19 19 18 19 18 18 25 25 27

GFSCGP_sfc_temp_042.txt.gz
Temp
46 42 40 48 45 44 40 39 37 43 51 43 48 48 51 55 55 55 58 59 60 61 67 66 60 54 52 50 51 52 50 51 49 47 44 43 44 43 41 42 43 42 41 39
41 37 47 47 45 44 42 39 40 46 50 42 44 47 53 54 55 58 59 60 62 63 64 61 60 52 50 53 51 51 51 51 49 50 50 50 49 45 45 41 40 42 40 39
42 45 48 46 42 42 38 38 42 40 43 41 39 41 42 48 52 56 58 60 61 60 60 62 61 54 49 49 49 51 51 51 50 51 49 37 37 35 34 35 37 38 40 39
41 45 46 39 42 43 38 44 44 41 35 31 41 35 38 49 49 49 55 56 57 58 57 56 57 51 49 51 51 51 51 50 49 49 47 46 47 44 43 44 42 39 40 39
43 42 40 39 43 44 42 43 41 36 32 31 31 30 36 43 43 50 52 54 58 56 55 58 56 54 53 51 50 50 50 48 48 48 48 46 48 48 40 40 40 39 38 38
43 43 45 46 45 45 43 39 37 32 31 25 35 35 45 41 44 45 49 54 55 55 54 52 52 51 50 49 46 44 45 46 45 47 48 46 48 42 39 38 38 37 37 36
36 40 43 45 40 39 41 35 28 25 22 29 34 33 47 46 50 51 56 53 56 53 52 51 50 51 51 46 43 41 43 44 44 45 46 45 47 40 42 40 41 37 36 36
35 38 42 44 44 42 36 38 30 22 26 36 32 28 45 49 50 50 51 51 49 49 49 48 47 46 45 43 42 40 40 40 42 43 44 44 46 43 44 41 42 40 40 41
34 34 40 41 41 44 35 33 41 33 30 25 37 38 48 56 57 53 48 46 50 49 48 48 49 47 45 42 41 40 39 39 39 41 43 42 44 43 44 40 39 40 40 39
43 36 40 39 38 39 40 40 31 28 22 23 30 36 39 46 50 53 48 48 49 50 50 48 47 49 45 42 40 39 39 40 39 40 41 42 43 43 43 39 37 37 38 37
42 41 38 37 34 40 34 33 33 35 34 27 25 31 49 50 52 49 49 48 50 50 50 50 49 49 46 42 39 39 38 38 37 38 40 40 40 40 39 38 39 38 38 37
44 39 32 36 46 39 38 38 39 32 29 33 32 32 53 51 53 54 54 54 49 49 46 46 46 45 45 45 45 40 38 37 37 38 39 40 38 38 38 39 39 39 37 37
40 33 28 30 34 33 32 36 38 39 38 31 27 31 49 50 50 51 50 45 41 40 40 41 41 41 41 42 42 43 43 39 38 37 36 35 34 36 39 39 39 38 37 36
42 34 32 27 32 34 32 33 33 30 26 28 29 31 36 40 34 35 35 39 38 38 38 39 39 40 40 41 41 41 42 44 43 38 36 36 35 36 38 38 37 36 37 35
35 28 32 32 31 31 30 29 30 27 30 27 31 33 37 29 30 32 35 34 34 34 34 36 37 38 39 39 41 41 41 40 40 40 37 38 39 38 36 35 36 35 35 35
33 21 26 21 28 29 25 29 30 30 32 33 34 33 29 30 32 31 31 32 33 35 36 36 36 37 36 36 38 38 38 37 36 36 37 39 37 36 36 36 33 32 33 34
25 20 10 16 26 22 14 25 30 31 29 24 22 22 26 26 29 31 31 30 31 32 33 34 35 36 35 35 36 37 36 36 35 34 34 35 36 33 34 34 33 33 32 33
20 11 8 7 6 -1 24 27 27 23 22 24 23 24 27 28 31 31 35 33 29 31 32 34 35 35 36 37 37 36 35 35 34 33 32 31 31 33 31 30 31 31 32 31
28 23 7 7 7 19 27 23 20 19 16 20 23 27 29 31 28 29 34 35 33 31 32 32 32 33 34 34 34 34 33 33 32 32 31 30 30 30 27 28 29 30 30 29
26 26 20 8 6 -0 12 20 27 22 7 19 19 20 22 25 17 24 32 34 33 33 32 29 30 31 31 31 30 30 31 31 30 30 29 27 26 27 26 28 26 28 29 28
1 -3 0 -7 -7 6 21 26 28 5 10 23 24 22 22 18 21 27 30 32 32 31 31 32 30 30 29 29 28 26 28 28 29 28 28 27 24 23 24 23 23 24 25 25
9 -1 -4 -7 -11 -2 25 25 18 23 28 29 25 28 27 27 28 28 29 27 28 27 28 29 27 27 28 29 28 26 25 27 26 27 27 27 23 23 24 25 20 21 23 23
11 16 7 10 10 23 24 26 32 30 27 29 28 29 27 26 26 27 25 25 25 26 27 27 25 24 25 26 25 22 24 24 24 23 23 26 27 23 24 23 22 21 19 20
20 25 19 19 25 26 30 32 32 32 31 32 29 26 25 23 24 22 23 24 24 24 24 24 22 21 21 22 22 21 21 21 18 16 17 19 24 25 23 23 23 22 21 21
23 23 17 19 25 28 29 31 32 31 28 26 25 24 22 21 20 21 21 21 21 22 22 21 20 19 18 19 18 17 16 14 13 13 14 16 19 24 24 23 23 22 23 24
26 23 20 18 29 28 29 31 26 23 22 21 19 18 21 21 19 19 18 19 19 18 18 17 17 15 14 14 12 11 11 9 8 8 11 13 15 18 23 23 22 28 28 28

GFSCGP_sfc_temp_045.txt.gz
Temp
46 43 40 47 46 45 42 40 39 43 51 44 48 48 51 55 55 55 58 60 61 61 65 64 62 61 56 54 54 54 52 54 52 51 49 48 47 48 48 49 49 47 49 46
42 38 47 46 44 43 41 38 39 44 48 43 44 46 53 55 56 58 58 59 60 60 61 60 59 58 55 56 53 54 53 53 52 53 53 53 52 51 50 48 47 48 47 47
42 46 47 46 43 42 39 38 41 40 42 42 39 42 43 50 51 55 56 58 57 58 58 60 57 59 56 54 52 52 53 53 53 53 52 43 45 43 44 44 44 45 46 46
41 45 45 40 42 42 37 44 43 40 37 34 42 34 41 50 52 51 57 55 56 58 56 55 55 55 56 55 53 52 52 52 51 52 50 48 50 47 48 49 47 45 45 45
42 40 39 39 43 44 42 43 40 38 35 33 33 31 40 45 46 51 51 54 56 57 54 55 55 54 54 52 52 50 50 49 50 49 52 49 50 52 47 49 45 44 44 45
42 42 43 45 43 44 43 40 36 33 33 27 35 35 47 41 46 48 52 55 56 61 53 53 53 52 51 50 49 48 47 48 47 48 50 48 49 50 44 44 43 42 43 43
38 40 42 44 40 39 40 36 30 27 24 33 35 33 47 48 49 54 55 54 56 53 52 52 51 52 52 52 46 46 45 45 45 46 48 48 48 49 44 43 44 41 42 41
34 36 40 43 45 42 38 40 32 24 29 35 32 30 46 52 50 50 51 51 50 51 50 51 51 50 49 47 46 45 43 42 43 43 45 47 46 48 46 45 45 43 43 43
34 35 39 40 40 44 35 34 41 35 30 26 38 39 49 52 50 49 50 49 51 51 50 49 49 47 46 46 45 43 42 42 42 42 43 43 44 46 45 44 45 44 44 44
42 35 40 39 39 38 40 40 32 28 23 23 33 36 39 48 46 48 46 46 47 43 42 42 43 43 43 44 44 45 43 42 41 41 41 42 42 43 43 40 40 41 42 42
42 38 37 37 36 37 36 34 34 34 34 27 25 33 50 46 45 41 36 38 38 39 39 40 41 42 42 43 43 43 43 42 42 41 40 40 40 41 41 39 40 40 40 40
42 37 32 32 40 41 39 39 39 32 30 33 33 33 48 44 44 44 38 39 38 37 38 39 40 41 41 41 42 42 41 41 41 42 40 40 39 38 38 39 39 38 38 39
39 33 28 29 32 33 33 36 35 34 31 27 25 29 44 44 46 44 34 34 35 36 37 37 38 38 39 39 39 40 40 40 40 40 40 39 38 37 37 38 38 38 38 38
41 33 31 27 33 34 30 30 32 30 23 27 27 28 36 41 33 32 34 34 34 35 36 37 37 37 38 38 38 39 39 40 39 38 38 38 38 38 38 39 39 37 38 38
34 28 32 32 29 29 27 27 28 25 28 23 26 28 35 26 28 31 34 34 33 34 34 35 35 36 38 38 38 38 38 37 37 36 36 36 36 37 38 37 37 37 36 37
30 23 24 20 28 29 26 28 29 29 29 28 28 26 27 30 31 32 33 32 31 32 33 34 35 35 35 35 36 36 37 35 35 34 34 35 34 34 35 36 35 35 35 36
27 23 17 17 25 22 13 21 28 29 22 22 20 20 24 26 29 29 29 30 31 31 32 32 32 33 32 33 33 33 33 34 33 33 33 32 32 32 33 33 34 32 33 34
24 10 8 1 3 -1 22 25 26 24 21 22 22 22 26 27 31 30 32 31 31 32 33 32 32 32 32 32 31 31 30 31 32 32 32 31 30 30 31 30 31 32 33 32
27 22 6 1 -4 14 24 23 21 19 16 20 18 22 24 28 28 27 32 33 31 31 33 32 31 30 30 30 30 28 28 29 29 29 29 28 29 28 28 29 29 29 30 31
24 25 16 -2 1 -4 13 20 24 20 7 17 18 19 20 25 18 24 31 31 30 30 30 29 30 30 29 30 30 27 27 27 27 27 26 27 28 27 26 28 28 28 28 30
0 -3 8 -5 -1 5 20 25 27 5 11 22 23 21 19 20 25 30 30 28 29 29 29 29 28 28 28 28 26 26 26 25 27 26 25 25 25 25 27 27 27 27 26 27
9 -1 -6 -12 -12 -2 23 24 17 23 30 30 27 27 27 29 30 30 30 29 29 27 27 29 26 27 28 27 25 24 23 26 24 23 22 20 19 21 23 26 26 26 25 24
9 15 6 9 8 21 23 24 32 33 29 29 29 30 29 28 28 27 27 27 26 26 27 27 25 24 26 25 23 20 22 22 20 15 14 15 16 18 20 21 24 25 24 23
18 23 17 17 24 26 30 32 33 32 31 32 28 25 24 23 24 23 23 23 24 24 24 24 22 21 21 23 23 20 19 18 9 10 11 12 12 13 16 19 24 24 24 23
21 21 15 19 25 27 29 31 31 29 26 24 22 22 21 21 19 20 20 20 20 20 20 20 18 18 17 19 18 17 15 9 8 9 9 9 10 11 13 16 19 23 26 26
25 23 19 17 28 27 28 27 23 21 19 19 18 17 19 18 16 16 14 16 15 14 15 13 13 12 12 11 10 10 9 7 5 4 6 6 7 8 10 12 14 23 28 31

GFSCGP_sfc_temp_048.txt.gz
Temp
57 56 53 60 60 62 56 54 54 58 63 57 56 58 61 65 66 65 67 70 71 72 76 75 73 74 74 71 70 69 68 66 66 62 61 61 60 61 61 62 61 61 59 58
53 50 59 58 56 54 54 51 52 59 60 52 57 55 60 64 64 66 66 68 70 72 75 73 72 72 72 71 71 68 67 66 65 64 63 63 62 63 61 61 60 60 59 58
55 59 57 53 54 51 52 49 52 53 55 58 53 56 57 65 63 65 65 67 69 69 69 69 68 71 71 71 70 68 67 65 64 63 63 61 63 59 58 58 57 57 58 58
53 56 52 50 50 53 48 58 52 49 47 47 53 45 56 62 63 65 66 67 69 72 71 70 69 68 67 65 63 64 64 63 62 62 61 59 57 56 58 58 57 57 56 57
53 49 47 47 51 53 52 52 49 48 47 44 50 43 57 59 59 62 65 67 70 72 67 66 64 63 64 60 59 60 61 60 59 58 60 59 57 60 61 59 57 56 55 55
53 53 53 56 52 53 52 51 48 46 46 39 51 48 52 56 57 60 66 68 69 64 64 63 60 59 57 56 55 56 56 57 56 57 58 58 57 57 58 57 55 55 54 53
49 49 53 53 50 49 50 48 41 39 39 39 50 44 50 61 65 61 62 62 59 56 54 52 51 51 52 51 51 52 53 53 55 55 55 56 57 56 55 56 55 53 51 50
45 43 49 53 53 52 48 50 40 27 32 40 49 40 52 62 62 61 55 52 51 51 51 50 49 49 50 49 50 51 50 49 51 51 52 53 53 54 54 55 55 54 53 52
44 44 50 48 51 54 46 43 51 40 38 35 44 51 59 62 55 49 48 50 49 48 49 49 49 48 48 48 48 49 48 48 48 48 49 49 51 51 51 52 51 51 50 49
48 39 51 49 50 50 48 51 41 40 29 28 40 43 46 54 52 45 45 45 45 46 46 46 47 48 48 48 49 49 49 47 47 47 47 47 47 48 49 51 49 48 49 49
50 44 44 48 46 45 46 42 42 41 38 30 30 39 56 49 45 44 43 42 42 43 43 45 46 47 48 49 48 48 47 46 46 46 46 45 45 45 46 46 48 48 48 49
51 43 35 42 53 52 49 46 46 33 32 37 35 37 57 53 49 42 40 40 40 41 43 45 45 46 46 46 46 45 46 45 45 45 44 44 44 44 44 44 46 47 47 47
43 35 30 33 43 41 39 42 42 43 34 30 27 33 49 51 48 42 39 38 39 40 41 43 43 43 43 44 44 44 45 45 44 43 43 43 42 42 42 42 43 44 45 45
39 33 32 28 35 37 31 34 34 31 26 27 28 32 41 44 39 38 39 40 40 40 40 41 41 41 42 43 43 43 44 44 43 41 41 41 41 41 41 41 41 42 43 43
36 29 33 33 32 30 30 28 30 28 30 23 30 30 38 36 32 35 39 40 39 39 39 40 39 40 41 40 41 42 42 42 41 40 40 39 39 39 39 39 39 39 39 41
31 26 27 24 32 32 29 31 32 33 33 33 34 33 34 36 38 38 38 38 37 38 39 39 40 39 39 39 39 38 40 39 38 38 37 38 36 35 35 36 36 36 36 37
30 28 25 20 29 25 20 28 33 35 38 33 27 31 30 32 34 36 36 37 37 38 38 39 39 40 39 39 38 37 38 37 35 35 35 35 33 32 33 34 34 34 33 35
28 23 24 18 17 10 28 33 33 30 28 30 28 29 31 33 36 37 39 37 38 39 39 40 40 40 40 39 38 38 36 35 33 32 32 33 31 30 31 32 32 32 34 33
32 27 18 15 16 22 28 31 28 25 26 29 29 31 32 35 35 35 41 41 39 40 41 39 39 38 38 37 37 35 34 34 32 31 32 32 29 27 28 26 29 31 30 31
28 29 21 9 11 10 23 29 31 28 19 27 26 28 29 31 23 31 39 40 40 41 40 38 38 36 35 36 36 32 32 32 31 32 31 30 28 25 23 24 25 28 30 30
17 17 16 17 14 18 28 30 32 16 21 31 33 31 30 29 32 36 39 38 40 39 36 37 36 34 34 34 32 30 30 29 31 31 29 27 26 22 22 22 24 24 26 28
20 14 13 8 8 9 30 30 23 32 36 35 34 35 34 35 35 36 37 36 35 34 34 34 31 31 32 32 30 27 27 30 30 29 26 23 20 20 20 18 19 21 23 24
17 24 21 19 21 31 31 31 36 37 33 34 35 36 33 30 30 31 30 30 30 29 29 29 28 27 28 28 27 23 26 27 25 21 16 16 17 17 17 16 16 18 20 23
27 31 22 23 28 31 34 37 38 38 36 36 32 28 27 25 25 24 24 24 24 24 23 23 21 19 20 22 22 21 21 20 12 11 12 13 13 14 14 16 17 17 19 22
28 27 23 23 29 32 34 35 36 34 29 26 26 24 23 22 20 20 19 18 19 18 17 16 14 14 13 14 13 13 13 11 8 8 9 9 10 10 11 13 14 16 18 20
31 27 23 21 32 32 33 37 27 26 23 22 20 20 20 18 16 16 15 15 14 12 11 9 8 7 7 6 6 6 6 5 3 3 5 6 6 7 8 8 10 15 18 21